Date,TemperatureHighF,TemperatureAvgF,TemperatureLowF,DewpointHighF,DewpointAvgF,DewpointLowF,HumidityHigh,HumidityAvg,HumidityLow,PressureMaxIn,PressureMinIn,WindSpeedMaxMPH,WindSpeedAvgMPH,GustSpeedMaxMPH,PrecipitationSumIn
2013-1-1,39,33,28,24,21,17,71,61,47,30.42,30.27,4,0,6,0.00
2013-1-2,39,32,28,32,22,18,79,67,56,30.27,30.12,3,0,3,0.00
2013-1-3,40,33,26,30,21,15,75,61,40,30.12,30.02,7,0,8,0.16
2013-1-4,48,42,37,41,35,30,83,75,63,30.23,30.08,5,0,8,0.08
2013-1-5,46,42,40,35,31,25,76,66,45,30.14,30.02,5,0,10,0.08
2013-1-6,46,43,39,35,33,29,75,69,51,30.11,29.90,7,1,9,0.24
2013-1-7,50,47,42,42,36,29,79,67,50,30.08,29.75,12,3,22,0.27
2013-1-8,53,48,43,46,37,29,84,66,50,30.08,29.66,10,3,20,0.55
2013-1-9,50,42,38,44,34,27,79,72,62,29.88,29.60,8,1,15,1.14
2013-1-10,39,36,31,32,28,22,76,72,66,30.03,29.88,4,0,6,0.04
2013-1-11,34,30,27,26,22,17,76,72,67,30.27,30.03,0,0,0,0.00
2013-1-12,35,30,26,23,18,13,73,61,47,30.39,30.24,4,0,8,0.00
2013-1-13,35,29,24,25,18,12,71,62,44,30.42,30.35,4,0,5,0.00
2013-1-14,37,34,32,27,23,20,71,63,54,30.50,30.39,4,0,5,0.00
2013-1-15,41,36,31,28,24,18,74,62,43,30.62,30.47,4,0,8,0.00
2013-1-16,31,31,31,18,18,18,59,59,59,30.60,30.60,0,0,0,0.00
2013-1-24,43,43,43,35,35,35,75,74,74,29.99,29.99,0,0,3,0.04
2013-1-25,49,44,39,42,37,31,81,75,68,29.99,29.84,4,0,6,0.20
2013-1-26,46,42,40,35,32,28,78,67,51,29.96,29.81,7,1,13,0.16
2013-1-27,43,42,40,33,31,29,72,67,57,29.99,29.90,7,1,11,0.12
2013-1-28,43,41,39,36,34,32,78,76,72,30.02,29.93,5,1,8,0.55
2013-1-29,48,45,42,42,39,36,83,79,76,30.26,30.02,7,1,11,0.71
2013-1-30,49,48,45,44,42,38,82,80,77,30.29,30.26,5,0,10,0.16
2013-1-31,50,48,47,42,40,36,81,74,58,30.32,30.23,7,1,11,0.16